Time,TemperatureF,DewpointF,PressureIn,WindDirection,WindDirectionDegrees,WindSpeedMPH,WindSpeedGustMPH,Humidity,HourlyPrecipIn,Conditions,Clouds,dailyrainin,SoftwareType,DateUTC
2013-04-22 00:00:00,68.1,66.0,30.09,East,96,12.7,19.5,93,0.00,CLR,,0.00,WeatherDisplay:10.37,2013-04-22 05:00:00,
2013-04-22 00:05:00,68.1,65.7,30.09,East,100,13.8,19.6,92,0.00,CLR,,0.00,WeatherDisplay:10.37,2013-04-22 05:05:00,
2013-04-22 00:10:00,68.1,65.7,30.09,East,99,11.9,19.6,92,0.00,CLR,,0.00,WeatherDisplay:10.37,2013-04-22 05:10:00,
2013-04-22 00:15:00,68.0,65.6,30.09,East,82,12.5,20.7,92,0.00,CLR,,0.00,WeatherDisplay:10.37,2013-04-22 05:15:00,
2013-04-22 00:20:00,68.0,65.9,30.09,East,86,13.3,19.4,93,0.00,CLR,,0.00,WeatherDisplay:10.37,2013-04-22 05:20:00,
2013-04-22 00:25:00,68.0,65.6,30.09,East,88,13.1,20.7,92,0.00,CLR,,0.00,WeatherDisplay:10.37,2013-04-22 05:25:00,
2013-04-22 00:30:00,67.9,65.5,30.09,East,97,12.1,17.3,92,0.00,CLR,,0.00,WeatherDisplay:10.37,2013-04-22 05:30:00,
2013-04-22 00:35:00,67.9,65.5,30.09,ESE,121,12.0,18.7,92,0.00,CLR,,0.00,WeatherDisplay:10.37,2013-04-22 05:35:00,
2013-04-22 00:40:00,68.0,65.6,30.09,ESE,113,13.2,20.2,92,0.00,CLR,,0.00,WeatherDisplay:10.37,2013-04-22 05:40:00,
2013-04-22 00:45:00,67.9,65.5,30.09,ESE,119,11.7,15.0,92,0.00,CLR,,0.00,WeatherDisplay:10.37,2013-04-22 05:45:00,
2013-04-22 00:50:00,68.0,65.6,30.09,East,89,12.3,18.7,92,0.00,CLR,,0.00,WeatherDisplay:10.37,2013-04-22 05:50:00,
2013-04-22 00:55:00,67.9,65.5,30.09,East,97,12.5,21.0,92,0.00,CLR,,0.00,WeatherDisplay:10.37,2013-04-22 05:55:00,
2013-04-22 01:01:00,67.9,65.5,30.09,ESE,107,11.8,18.4,92,0.00,CLR,,0.00,WeatherDisplay:10.37,2013-04-22 06:01:00,
2013-04-22 01:06:00,68.0,65.6,30.09,ENE,75,10.6,15.9,92,0.00,CLR,,0.00,WeatherDisplay:10.37,2013-04-22 06:06:00,
2013-04-22 01:11:00,67.9,65.5,30.09,East,93,10.9,17.3,92,0.00,CLR,,0.00,WeatherDisplay:10.37,2013-04-22 06:11:00,
2013-04-22 01:16:00,68.0,65.9,30.09,East,100,11.6,15.4,93,0.00,CLR,,0.00,WeatherDisplay:10.37,2013-04-22 06:16:00,
2013-04-22 01:21:00,68.0,65.9,30.09,East,82,10.5,15.0,93,0.00,CLR,,0.00,WeatherDisplay:10.37,2013-04-22 06:21:00,
2013-04-22 01:26:00,67.9,65.8,30.09,ESE,104,9.1,17.3,93,0.00,CLR,,0.00,WeatherDisplay:10.37,2013-04-22 06:26:00,
2013-04-22 01:31:00,67.9,65.8,30.08,East,100,10.7,15.0,93,0.00,CLR,,0.00,WeatherDisplay:10.37,2013-04-22 06:31:00,
2013-04-22 01:36:00,67.9,66.1,30.08,East,89,9.2,13.8,94,0.00,CLR,,0.00,WeatherDisplay:10.37,2013-04-22 06:36:00,
2013-04-22 01:41:00,67.8,66.0,30.08,East,90,11.2,17.3,94,0.00,CLR,,0.00,WeatherDisplay:10.37,2013-04-22 06:41:00,
2013-04-22 01:46:00,67.8,66.0,30.08,ESE,109,9.4,13.8,94,0.00,CLR,,0.00,WeatherDisplay:10.37,2013-04-22 06:46:00,
2013-04-22 01:51:00,67.7,65.9,30.08,ESE,103,11.0,16.1,94,0.00,CLR,,0.00,WeatherDisplay:10.37,2013-04-22 06:51:00,
2013-04-22 01:56:00,67.7,65.9,30.08,East,90,9.4,13.8,94,0.00,CLR,,0.00,WeatherDisplay:10.37,2013-04-22 06:56:00,
2013-04-22 02:01:00,67.7,65.9,30.08,East,92,9.0,13.8,94,0.00,CLR,,0.00,WeatherDisplay:10.37,2013-04-22 07:01:00,
2013-04-22 02:06:00,67.8,66.0,30.08,ENE,64,9.7,12.9,94,0.00,CLR,,0.00,WeatherDisplay:10.37,2013-04-22 07:06:00,
2013-04-22 02:11:00,67.7,65.9,30.08,East,90,9.7,12.7,94,0.00,CLR,,0.00,WeatherDisplay:10.37,2013-04-22 07:11:00,
2013-04-22 02:16:00,67.7,65.9,30.08,ESE,104,11.2,15.0,94,0.00,CLR,,0.00,WeatherDisplay:10.37,2013-04-22 07:16:00,
2013-04-22 02:21:00,67.7,65.9,30.08,East,99,10.3,13.2,94,0.00,CLR,,0.00,WeatherDisplay:10.37,2013-04-22 07:21:00,
2013-04-22 02:26:00,67.7,65.9,30.07,ESE,110,9.5,17.3,94,0.00,CLR,,0.00,WeatherDisplay:10.37,2013-04-22 07:26:00,
2013-04-22 02:31:00,67.7,65.9,30.07,East,95,9.3,12.7,94,0.00,CLR,,0.00,WeatherDisplay:10.37,2013-04-22 07:31:00,
2013-04-22 02:36:00,67.7,65.9,30.07,ENE,73,10.4,15.0,94,0.00,CLR,,0.00,WeatherDisplay:10.37,2013-04-22 07:36:00,
2013-04-22 02:41:00,67.6,65.8,30.07,East,86,9.3,13.8,94,0.00,CLR,,0.00,WeatherDisplay:10.37,2013-04-22 07:41:00,
2013-04-22 02:46:00,67.7,65.9,30.07,ENE,58,10.6,13.8,94,0.00,CLR,,0.00,WeatherDisplay:10.37,2013-04-22 07:46:00,
2013-04-22 02:51:00,67.5,65.7,30.07,East,79,9.5,12.7,94,0.00,CLR,,0.00,WeatherDisplay:10.37,2013-04-22 07:51:00,
2013-04-22 02:56:00,67.7,65.9,30.07,East,85,10.0,13.8,94,0.00,CLR,,0.00,WeatherDisplay:10.37,2013-04-22 07:56:00,
2013-04-22 03:01:00,67.5,66.0,30.07,East,100,8.4,13.8,95,0.00,CLR,,0.00,WeatherDisplay:10.37,2013-04-22 08:01:00,
2013-04-22 03:06:00,67.5,66.0,30.07,East,95,7.8,13.8,95,0.00,CLR,,0.00,WeatherDisplay:10.37,2013-04-22 08:06:00,
2013-04-22 03:11:00,67.4,65.9,30.06,East,99,8.9,13.8,95,0.00,CLR,,0.00,WeatherDisplay:10.37,2013-04-22 08:11:00,
2013-04-22 03:16:00,67.5,66.0,30.06,ESE,110,7.8,11.5,95,0.00,CLR,,0.00,WeatherDisplay:10.37,2013-04-22 08:16:00,
2013-04-22 03:21:00,67.5,66.0,30.06,ENE,72,8.8,12.7,95,0.00,CLR,,0.00,WeatherDisplay:10.37,2013-04-22 08:21:00,
2013-04-22 03:26:00,67.6,66.1,30.06,ESE,113,9.5,15.0,95,0.00,CLR,,0.00,WeatherDisplay:10.37,2013-04-22 08:26:00,
2013-04-22 03:31:00,67.5,66.0,30.06,East,90,7.6,13.8,95,0.00,CLR,,0.00,WeatherDisplay:10.37,2013-04-22 08:31:00,
2013-04-22 03:36:00,67.5,66.3,30.06,East,95,8.3,11.5,96,0.00,CLR,,0.00,WeatherDisplay:10.37,2013-04-22 08:36:00,
2013-04-22 03:41:00,67.6,66.4,30.06,ESE,103,7.3,10.5,96,0.00,CLR,,0.00,WeatherDisplay:10.37,2013-04-22 08:41:00,
2013-04-22 03:46:00,67.5,66.3,30.06,East,95,7.3,10.4,96,0.00,CLR,,0.00,WeatherDisplay:10.37,2013-04-22 08:46:00,
2013-04-22 03:51:00,67.5,66.3,30.06,East,92,8.4,12.8,96,0.00,CLR,,0.00,WeatherDisplay:10.37,2013-04-22 08:51:00,
2013-04-22 03:56:00,67.7,66.5,30.06,East,97,8.2,14.3,96,0.00,CLR,,0.00,WeatherDisplay:10.37,2013-04-22 08:56:00,
2013-04-22 04:01:00,67.7,66.5,30.06,ESE,102,8.3,11.5,96,0.00,CLR,,0.00,WeatherDisplay:10.37,2013-04-22 09:01:00,
2013-04-22 04:06:00,67.8,66.6,30.06,ESE,104,6.6,9.1,96,0.00,CLR,,0.00,WeatherDisplay:10.37,2013-04-22 09:06:00,
2013-04-22 04:11:00,67.8,66.6,30.05,ESE,103,8.5,11.5,96,0.00,CLR,,0.00,WeatherDisplay:10.37,2013-04-22 09:11:00,
2013-04-22 04:16:00,67.8,66.6,30.05,East,99,8.6,12.0,96,0.00,CLR,,0.00,WeatherDisplay:10.37,2013-04-22 09:16:00,
2013-04-22 04:21:00,67.8,66.6,30.05,East,96,6.8,10.4,96,0.00,CLR,,0.00,WeatherDisplay:10.37,2013-04-22 09:21:00,
2013-04-22 04:26:00,67.8,66.6,30.05,ESE,109,8.9,12.7,96,0.00,CLR,,0.00,WeatherDisplay:10.37,2013-04-22 09:26:00,
2013-04-22 04:31:00,67.8,66.6,30.05,East,99,7.5,12.7,96,0.00,CLR,,0.00,WeatherDisplay:10.37,2013-04-22 09:31:00,
2013-04-22 04:37:00,67.8,66.6,30.05,East,100,8.1,12.7,96,0.00,CLR,,0.00,WeatherDisplay:10.37,2013-04-22 09:37:00,
2013-04-22 04:42:00,67.7,66.5,30.05,ENE,59,8.7,11.5,96,0.00,CLR,,0.00,WeatherDisplay:10.37,2013-04-22 09:42:00,
2013-04-22 04:47:00,67.5,66.3,30.05,ENE,69,8.0,12.1,96,0.00,CLR,,0.00,WeatherDisplay:10.37,2013-04-22 09:47:00,
2013-04-22 04:52:00,67.6,66.4,30.05,East,86,8.6,12.7,96,0.00,CLR,,0.00,WeatherDisplay:10.37,2013-04-22 09:52:00,
2013-04-22 04:57:00,67.6,66.4,30.05,ESE,104,7.4,11.8,96,0.00,CLR,,0.00,WeatherDisplay:10.37,2013-04-22 09:57:00,
2013-04-22 05:02:00,67.6,66.4,30.05,ENE,76,7.5,12.9,96,0.00,CLR,,0.00,WeatherDisplay:10.37,2013-04-22 10:02:00,
2013-04-22 05:07:00,67.4,66.2,30.05,ESE,104,8.9,11.5,96,0.00,CLR,,0.00,WeatherDisplay:10.37,2013-04-22 10:07:00,
2013-04-22 05:12:00,67.4,66.2,30.05,ESE,113,9.4,13.8,96,0.00,CLR,,0.00,WeatherDisplay:10.37,2013-04-22 10:12:00,
2013-04-22 05:17:00,67.4,66.2,30.05,East,100,8.5,13.8,96,0.00,CLR,,0.00,WeatherDisplay:10.37,2013-04-22 10:17:00,
2013-04-22 05:22:00,67.4,66.2,30.05,ESE,104,7.7,12.7,96,0.00,CLR,,0.00,WeatherDisplay:10.37,2013-04-22 10:22:00,
2013-04-22 05:27:00,67.4,66.2,30.05,ESE,110,7.5,11.0,96,0.00,CLR,,0.00,WeatherDisplay:10.37,2013-04-22 10:27:00,
2013-04-22 05:32:00,67.4,66.2,30.05,East,96,7.4,11.5,96,0.00,CLR,,0.00,WeatherDisplay:10.37,2013-04-22 10:32:00,
2013-04-22 05:37:00,67.4,66.2,30.05,ESE,107,6.3,8.5,96,0.00,CLR,,0.00,WeatherDisplay:10.37,2013-04-22 10:37:00,
2013-04-22 05:42:00,67.3,66.1,30.05,ENE,66,7.8,10.8,96,0.00,CLR,,0.00,WeatherDisplay:10.37,2013-04-22 10:42:00,
2013-04-22 05:47:00,67.3,66.1,30.05,ENE,71,7.5,10.9,96,0.00,CLR,,0.00,WeatherDisplay:10.37,2013-04-22 10:47:00,
2013-04-22 05:52:00,67.3,66.1,30.05,ESE,103,8.8,11.1,96,0.00,CLR,,0.00,WeatherDisplay:10.37,2013-04-22 10:52:00,
2013-04-22 05:57:00,67.3,66.1,30.06,ENE,73,7.2,9.3,96,0.00,CLR,,0.00,WeatherDisplay:10.37,2013-04-22 10:57:00,
2013-04-22 06:02:00,67.3,66.1,30.06,ENE,76,7.1,11.5,96,0.00,CLR,,0.00,WeatherDisplay:10.37,2013-04-22 11:02:00,
2013-04-22 06:07:00,67.3,66.1,30.06,ESE,104,7.0,11.5,96,0.00,CLR,,0.00,WeatherDisplay:10.37,2013-04-22 11:07:00,
2013-04-22 06:12:00,67.4,66.2,30.06,East,88,7.7,10.4,96,0.00,CLR,,0.00,WeatherDisplay:10.37,2013-04-22 11:12:00,
2013-04-22 06:17:00,67.5,66.3,30.06,East,83,7.3,9.2,96,0.00,CLR,,0.00,WeatherDisplay:10.37,2013-04-22 11:17:00,
2013-04-22 06:23:00,67.4,66.2,30.06,East,82,6.9,9.2,96,0.00,CLR,,0.00,WeatherDisplay:10.37,2013-04-22 11:23:00,
2013-04-22 06:28:00,67.4,66.2,30.06,ENE,59,5.5,9.2,96,0.00,CLR,,0.00,WeatherDisplay:10.37,2013-04-22 11:28:00,
2013-04-22 06:33:00,67.5,66.3,30.06,East,93,7.1,11.8,96,0.00,CLR,,0.00,WeatherDisplay:10.37,2013-04-22 11:33:00,
2013-04-22 06:38:00,67.5,66.3,30.06,ENE,71,6.8,9.4,96,0.00,CLR,,0.00,WeatherDisplay:10.37,2013-04-22 11:38:00,
2013-04-22 06:43:00,67.7,66.5,30.06,East,90,6.6,9.2,96,0.00,CLR,,0.00,WeatherDisplay:10.37,2013-04-22 11:43:00,
2013-04-22 06:48:00,67.7,66.5,30.06,ESE,116,7.1,10.4,96,0.00,CLR,,0.00,WeatherDisplay:10.37,2013-04-22 11:48:00,
2013-04-22 06:53:00,67.7,66.5,30.06,ESE,113,6.8,9.2,96,0.00,CLR,,0.00,WeatherDisplay:10.37,2013-04-22 11:53:00,
2013-04-22 06:58:00,67.6,66.4,30.06,East,83,7.7,11.1,96,0.00,CLR,,0.00,WeatherDisplay:10.37,2013-04-22 11:58:00,
2013-04-22 07:03:00,67.6,66.4,30.06,ENE,73,7.7,10.4,96,0.00,CLR,,0.00,WeatherDisplay:10.37,2013-04-22 12:03:00,
2013-04-22 07:08:00,67.6,66.4,30.06,ESE,102,7.8,9.9,96,0.00,CLR,,0.00,WeatherDisplay:10.37,2013-04-22 12:08:00,
2013-04-22 07:13:00,67.4,66.2,30.06,ESE,103,7.1,10.4,96,0.00,CLR,,0.00,WeatherDisplay:10.37,2013-04-22 12:13:00,
2013-04-22 07:18:00,67.5,66.3,30.07,East,99,6.2,8.6,96,0.00,CLR,,0.00,WeatherDisplay:10.37,2013-04-22 12:18:00,
2013-04-22 07:23:00,67.5,66.3,30.07,East,86,5.1,8.1,96,0.00,CLR,,0.00,WeatherDisplay:10.37,2013-04-22 12:23:00,
2013-04-22 07:28:00,67.6,66.4,30.07,East,80,6.9,8.7,96,0.00,CLR,,0.00,WeatherDisplay:10.37,2013-04-22 12:28:00,
2013-04-22 07:33:00,67.7,66.5,30.07,East,93,8.9,11.7,96,0.00,CLR,,0.00,WeatherDisplay:10.37,2013-04-22 12:33:00,
2013-04-22 07:38:00,67.8,66.6,30.07,ENE,76,7.4,10.4,96,0.00,CLR,,0.00,WeatherDisplay:10.37,2013-04-22 12:38:00,
2013-04-22 07:43:00,67.9,66.7,30.07,ESE,113,7.2,10.9,96,0.00,CLR,,0.00,WeatherDisplay:10.37,2013-04-22 12:43:00,
2013-04-22 07:48:00,67.9,66.7,30.07,East,92,8.5,10.6,96,0.00,CLR,,0.00,WeatherDisplay:10.37,2013-04-22 12:48:00,
2013-04-22 07:53:00,68.0,66.8,30.07,East,93,9.5,12.7,96,0.00,CLR,,0.00,WeatherDisplay:10.37,2013-04-22 12:53:00,
2013-04-22 07:58:00,68.1,66.9,30.07,East,90,7.7,11.5,96,0.00,CLR,,0.00,WeatherDisplay:10.37,2013-04-22 12:58:00,
2013-04-22 08:03:00,68.2,67.0,30.07,ESE,116,6.0,10.4,96,0.00,CLR,,0.00,WeatherDisplay:10.37,2013-04-22 13:03:00,
2013-04-22 08:08:00,68.3,66.8,30.07,ENE,71,6.8,9.3,95,0.00,CLR,,0.00,WeatherDisplay:10.37,2013-04-22 13:08:00,
2013-04-22 08:13:00,68.4,66.9,30.07,East,86,6.9,9.8,95,0.00,CLR,,0.00,WeatherDisplay:10.37,2013-04-22 13:13:00,
2013-04-22 08:18:00,68.5,67.0,30.08,ENE,73,7.4,12.0,95,0.00,CLR,,0.00,WeatherDisplay:10.37,2013-04-22 13:18:00,
2013-04-22 08:23:00,68.7,66.9,30.08,ESE,107,9.7,12.7,94,0.00,CLR,,0.00,WeatherDisplay:10.37,2013-04-22 13:23:00,
2013-04-22 08:28:00,69.0,66.9,30.08,ESE,102,7.6,11.5,93,0.00,CLR,,0.00,WeatherDisplay:10.37,2013-04-22 13:28:00,
2013-04-22 08:33:00,69.3,66.9,30.07,East,82,8.6,9.2,92,0.00,CLR,,0.00,WeatherDisplay:10.37,2013-04-22 13:33:00,
2013-04-22 08:39:00,69.5,67.1,30.08,ESE,107,7.3,11.5,92,0.00,CLR,,0.00,WeatherDisplay:10.37,2013-04-22 13:39:00,
2013-04-22 08:44:00,69.6,66.5,30.08,ESE,110,8.5,12.1,90,0.00,CLR,,0.00,WeatherDisplay:10.37,2013-04-22 13:44:00,
2013-04-22 08:49:00,69.9,66.5,30.08,East,96,8.4,12.7,89,0.00,CLR,,0.00,WeatherDisplay:10.37,2013-04-22 13:49:00,
2013-04-22 08:54:00,70.0,66.3,30.08,ESE,114,9.9,12.7,88,0.00,CLR,,0.00,WeatherDisplay:10.37,2013-04-22 13:54:00,
2013-04-22 08:59:00,70.3,66.2,30.08,SE,140,8.4,13.8,87,0.00,CLR,,0.00,WeatherDisplay:10.37,2013-04-22 13:59:00,
2013-04-22 09:04:00,70.3,65.6,30.08,East,97,10.0,13.8,85,0.00,CLR,,0.00,WeatherDisplay:10.37,2013-04-22 14:04:00,
2013-04-22 09:09:00,70.5,65.8,30.08,ESE,120,10.4,12.7,85,0.00,CLR,,0.00,WeatherDisplay:10.37,2013-04-22 14:09:00,
2013-04-22 09:14:00,70.7,65.6,30.08,East,97,10.7,14.0,84,0.00,CLR,,0.00,WeatherDisplay:10.37,2013-04-22 14:14:00,
2013-04-22 09:19:00,70.8,65.4,30.08,ESE,116,9.2,14.1,83,0.00,CLR,,0.00,WeatherDisplay:10.37,2013-04-22 14:19:00,
2013-04-22 09:24:00,71.0,65.6,30.08,East,99,9.6,13.8,83,0.00,CLR,,0.00,WeatherDisplay:10.37,2013-04-22 14:24:00,
2013-04-22 09:29:00,71.3,65.5,30.08,East,83,8.8,12.7,82,0.00,CLR,,0.00,WeatherDisplay:10.37,2013-04-22 14:29:00,
2013-04-22 09:34:00,71.4,65.3,30.08,East,99,9.2,13.8,81,0.00,CLR,,0.00,WeatherDisplay:10.37,2013-04-22 14:34:00,
2013-04-22 09:39:00,71.6,65.5,30.08,East,99,9.6,15.0,81,0.00,CLR,,0.00,WeatherDisplay:10.37,2013-04-22 14:39:00,
2013-04-22 09:44:00,71.8,65.3,30.08,ENE,76,9.9,12.7,80,0.00,CLR,,0.00,WeatherDisplay:10.37,2013-04-22 14:44:00,
2013-04-22 09:49:00,72.1,65.6,30.08,ESE,123,10.0,13.2,80,0.00,CLR,,0.00,WeatherDisplay:10.37,2013-04-22 14:49:00,
2013-04-22 09:54:00,72.2,65.3,30.08,East,79,8.7,11.5,79,0.00,CLR,,0.00,WeatherDisplay:10.37,2013-04-22 14:54:00,
2013-04-22 09:59:00,72.2,65.0,30.08,ESE,104,8.5,12.7,78,0.00,CLR,,0.00,WeatherDisplay:10.37,2013-04-22 14:59:00,
2013-04-22 10:04:00,72.4,65.2,30.09,East,89,10.5,15.0,78,0.00,CLR,,0.00,WeatherDisplay:10.37,2013-04-22 15:04:00,
2013-04-22 10:09:00,72.6,65.3,30.09,ESE,103,9.7,12.7,78,0.00,CLR,,0.00,WeatherDisplay:10.37,2013-04-22 15:09:00,
2013-04-22 10:14:00,72.7,65.4,30.09,ESE,116,7.2,13.8,78,0.00,CLR,,0.00,WeatherDisplay:10.37,2013-04-22 15:14:00,
2013-04-22 10:19:00,73.0,65.4,30.09,ESE,104,10.1,13.1,77,0.00,CLR,,0.00,WeatherDisplay:10.37,2013-04-22 15:19:00,
2013-04-22 10:24:00,73.1,65.5,30.09,East,88,9.4,12.7,77,0.00,CLR,,0.00,WeatherDisplay:10.37,2013-04-22 15:24:00,
2013-04-22 10:29:00,73.3,65.7,30.09,ESE,113,7.3,10.4,77,0.00,CLR,,0.00,WeatherDisplay:10.37,2013-04-22 15:29:00,
2013-04-22 10:34:00,73.4,65.4,30.09,East,90,7.5,10.4,76,0.00,CLR,,0.00,WeatherDisplay:10.37,2013-04-22 15:34:00,
2013-04-22 10:39:00,73.5,65.5,30.09,ESE,102,7.9,13.1,76,0.00,CLR,,0.00,WeatherDisplay:10.37,2013-04-22 15:39:00,
2013-04-22 10:44:00,73.8,65.8,30.09,East,89,7.0,10.5,76,0.00,CLR,,0.00,WeatherDisplay:10.37,2013-04-22 15:44:00,
2013-04-22 10:49:00,73.9,65.1,30.09,SE,130,6.3,11.5,74,0.00,CLR,,0.00,WeatherDisplay:10.37,2013-04-22 15:49:00,
2013-04-22 10:54:00,73.9,65.1,30.10,East,99,7.7,9.9,74,0.00,CLR,,0.00,WeatherDisplay:10.37,2013-04-22 15:54:00,
2013-04-22 10:59:00,74.1,65.3,30.10,East,89,6.8,10.4,74,0.00,CLR,,0.00,WeatherDisplay:10.37,2013-04-22 15:59:00,
2013-04-22 11:04:00,74.3,65.1,30.10,East,79,8.1,12.7,73,0.00,CLR,,0.00,WeatherDisplay:10.37,2013-04-22 16:04:00,
2013-04-22 11:09:00,74.5,65.3,30.10,East,80,6.4,11.5,73,0.00,CLR,,0.00,WeatherDisplay:10.37,2013-04-22 16:09:00,
2013-04-22 11:14:00,74.7,65.1,30.10,ESE,123,8.7,11.5,72,0.00,CLR,,0.00,WeatherDisplay:10.37,2013-04-22 16:14:00,
2013-04-22 11:19:00,74.7,64.7,30.10,East,96,7.3,10.4,71,0.00,CLR,,0.00,WeatherDisplay:10.37,2013-04-22 16:19:00,
2013-04-22 11:24:00,74.6,65.0,30.09,East,99,6.3,10.4,72,0.00,CLR,,0.00,WeatherDisplay:10.37,2013-04-22 16:24:00,
2013-04-22 11:29:00,74.9,64.9,30.09,East,86,7.4,11.8,71,0.00,CLR,,0.00,WeatherDisplay:10.37,2013-04-22 16:29:00,
2013-04-22 11:34:00,75.0,65.0,30.09,ESE,112,6.6,9.6,71,0.00,CLR,,0.00,WeatherDisplay:10.37,2013-04-22 16:34:00,
2013-04-22 11:39:00,74.9,64.9,30.09,SE,133,6.4,9.2,71,0.00,CLR,,0.00,WeatherDisplay:10.37,2013-04-22 16:39:00,
2013-04-22 11:44:00,75.1,65.1,30.09,ESE,107,5.0,8.1,71,0.00,CLR,,0.00,WeatherDisplay:10.37,2013-04-22 16:44:00,
2013-04-22 11:49:00,75.2,65.1,30.09,SE,134,6.2,9.2,71,0.00,CLR,,0.00,WeatherDisplay:10.37,2013-04-22 16:49:00,
2013-04-22 11:54:00,75.2,64.7,30.09,SE,124,7.1,11.5,70,0.00,CLR,,0.00,WeatherDisplay:10.37,2013-04-22 16:54:00,
2013-04-22 11:59:00,75.2,65.1,30.09,ESE,114,7.0,10.4,71,0.00,CLR,,0.00,WeatherDisplay:10.37,2013-04-22 16:59:00,
2013-04-22 12:04:00,75.2,65.1,30.09,SSE,150,4.7,6.9,71,0.00,CLR,,0.00,WeatherDisplay:10.37,2013-04-22 17:04:00,
2013-04-22 12:09:00,75.3,65.2,30.09,ESE,109,5.3,9.2,71,0.00,CLR,,0.00,WeatherDisplay:10.37,2013-04-22 17:09:00,
2013-04-22 12:14:00,75.7,65.2,30.09,ESE,120,6.3,9.3,70,0.00,CLR,,0.00,WeatherDisplay:10.37,2013-04-22 17:14:00,
2013-04-22 12:19:00,75.8,64.9,30.09,SSE,148,4.9,8.1,69,0.00,CLR,,0.00,WeatherDisplay:10.37,2013-04-22 17:19:00,
2013-04-22 12:24:00,76.0,65.5,30.08,South,171,4.2,10.4,70,0.00,CLR,,0.00,WeatherDisplay:10.37,2013-04-22 17:24:00,
2013-04-22 12:29:00,75.9,65.4,30.08,ESE,120,6.2,9.2,70,0.00,CLR,,0.00,WeatherDisplay:10.37,2013-04-22 17:29:00,
2013-04-22 12:34:00,75.9,65.4,30.08,SSE,155,5.9,10.8,70,0.00,CLR,,0.00,WeatherDisplay:10.37,2013-04-22 17:34:00,
2013-04-22 12:39:00,75.8,65.7,30.08,South,174,6.4,10.4,71,0.00,CLR,,0.00,WeatherDisplay:10.37,2013-04-22 17:39:00,
2013-04-22 12:44:00,75.7,65.6,30.08,East,90,4.7,9.2,71,0.00,CLR,,0.00,WeatherDisplay:10.37,2013-04-22 17:44:00,
2013-04-22 12:49:00,76.0,65.9,30.07,ESE,119,6.7,9.4,71,0.00,CLR,,0.00,WeatherDisplay:10.37,2013-04-22 17:49:00,
2013-04-22 12:54:00,75.9,65.8,30.07,SE,133,6.8,9.5,71,0.00,CLR,,0.00,WeatherDisplay:10.37,2013-04-22 17:54:00,
2013-04-22 12:59:00,76.1,65.6,30.07,SSE,151,5.4,8.3,70,0.00,CLR,,0.00,WeatherDisplay:10.37,2013-04-22 17:59:00,
2013-04-22 13:04:00,75.8,65.3,30.06,SSE,155,8.5,11.5,70,0.00,CLR,,0.00,WeatherDisplay:10.37,2013-04-22 18:04:00,
2013-04-22 13:09:00,75.9,66.2,30.06,SSE,148,5.4,9.2,72,0.00,CLR,,0.00,WeatherDisplay:10.37,2013-04-22 18:09:00,
2013-04-22 13:14:00,75.9,66.2,30.06,SE,128,5.5,10.4,72,0.00,CLR,,0.00,WeatherDisplay:10.37,2013-04-22 18:14:00,
2013-04-22 13:19:00,76.3,66.2,30.06,SSE,147,5.2,9.2,71,0.00,CLR,,0.00,WeatherDisplay:10.37,2013-04-22 18:19:00,
2013-04-22 13:24:00,76.6,66.1,30.06,ESE,110,7.0,10.3,70,0.00,CLR,,0.00,WeatherDisplay:10.37,2013-04-22 18:24:00,
2013-04-22 13:29:00,76.5,66.4,30.05,South,179,7.2,10.4,71,0.00,CLR,,0.00,WeatherDisplay:10.37,2013-04-22 18:29:00,
2013-04-22 13:34:00,76.5,66.0,30.05,ESE,103,8.1,12.7,70,0.00,CLR,,0.00,WeatherDisplay:10.37,2013-04-22 18:34:00,
2013-04-22 13:39:00,76.4,65.9,30.05,SSE,158,7.1,8.1,70,0.00,CLR,,0.00,WeatherDisplay:10.37,2013-04-22 18:39:00,
2013-04-22 13:44:00,76.7,66.6,30.04,SSE,152,7.3,11.5,71,0.00,CLR,,0.00,WeatherDisplay:10.37,2013-04-22 18:44:00,
2013-04-22 13:49:00,76.5,66.0,30.04,South,175,6.0,11.7,70,0.00,CLR,,0.00,WeatherDisplay:10.37,2013-04-22 18:49:00,
2013-04-22 13:54:00,76.6,66.1,30.04,SE,133,6.0,9.2,70,0.00,CLR,,0.00,WeatherDisplay:10.37,2013-04-22 18:54:00,
2013-04-22 13:59:00,77.1,66.1,30.03,ESE,106,4.8,8.1,69,0.00,CLR,,0.00,WeatherDisplay:10.37,2013-04-22 18:59:00,
2013-04-22 14:04:00,77.0,65.2,30.03,SSE,164,8.1,12.7,67,0.00,CLR,,0.00,WeatherDisplay:10.37,2013-04-22 19:04:00,
2013-04-22 14:09:00,76.5,65.6,30.03,SSE,154,6.1,11.5,69,0.00,CLR,,0.00,WeatherDisplay:10.37,2013-04-22 19:09:00,
2013-04-22 14:14:00,76.3,65.8,30.03,SSE,148,5.9,10.4,70,0.00,CLR,,0.00,WeatherDisplay:10.37,2013-04-22 19:14:00,
2013-04-22 14:19:00,76.6,65.7,30.03,SE,128,5.7,10.4,69,0.00,CLR,,0.00,WeatherDisplay:10.37,2013-04-22 19:19:00,
2013-04-22 14:24:00,77.0,65.6,30.02,ESE,121,4.5,10.4,68,0.00,CLR,,0.00,WeatherDisplay:10.37,2013-04-22 19:24:00,
2013-04-22 14:30:00,77.2,65.4,30.02,SSE,155,7.4,9.2,67,0.00,CLR,,0.00,WeatherDisplay:10.37,2013-04-22 19:30:00,
2013-04-22 14:35:00,77.2,65.4,30.02,SE,130,8.0,12.7,67,0.00,CLR,,0.00,WeatherDisplay:10.37,2013-04-22 19:35:00,
2013-04-22 14:40:00,77.2,65.4,30.02,SSE,147,4.8,10.4,67,0.00,CLR,,0.00,WeatherDisplay:10.37,2013-04-22 19:40:00,
2013-04-22 14:45:00,77.4,65.1,30.02,SE,134,7.0,10.6,66,0.00,CLR,,0.00,WeatherDisplay:10.37,2013-04-22 19:45:00,
2013-04-22 14:50:00,77.8,65.5,30.01,SE,131,6.2,9.2,66,0.00,CLR,,0.00,WeatherDisplay:10.37,2013-04-22 19:50:00,
2013-04-22 14:55:00,78.3,65.6,30.01,SE,126,8.3,12.7,65,0.00,CLR,,0.00,WeatherDisplay:10.37,2013-04-22 19:55:00,
2013-04-22 15:00:00,78.5,65.8,30.01,ESE,121,7.4,12.1,65,0.00,CLR,,0.00,WeatherDisplay:10.37,2013-04-22 20:00:00,
2013-04-22 15:05:00,78.9,65.2,30.01,SE,127,8.7,12.7,63,0.00,CLR,,0.00,WeatherDisplay:10.37,2013-04-22 20:05:00,
2013-04-22 15:10:00,79.0,65.8,30.00,SE,127,8.8,13.8,64,0.00,CLR,,0.00,WeatherDisplay:10.37,2013-04-22 20:10:00,
2013-04-22 15:15:00,78.9,65.7,30.00,SE,144,9.5,12.2,64,0.00,CLR,,0.00,WeatherDisplay:10.37,2013-04-22 20:15:00,
2013-04-22 15:20:00,78.5,65.3,30.00,SE,138,7.9,15.0,64,0.00,CLR,,0.00,WeatherDisplay:10.37,2013-04-22 20:20:00,
2013-04-22 15:25:00,78.5,66.2,30.00,ESE,123,8.2,15.0,66,0.00,CLR,,0.00,WeatherDisplay:10.37,2013-04-22 20:25:00,
2013-04-22 15:30:00,78.4,65.7,30.00,ESE,121,8.8,13.8,65,0.00,CLR,,0.00,WeatherDisplay:10.37,2013-04-22 20:30:00,
2013-04-22 15:35:00,78.2,66.3,29.99,ESE,109,7.5,12.7,67,0.00,CLR,,0.00,WeatherDisplay:10.37,2013-04-22 20:35:00,
2013-04-22 15:40:00,78.1,66.2,29.99,SE,127,9.5,13.6,67,0.00,CLR,,0.00,WeatherDisplay:10.37,2013-04-22 20:40:00,
2013-04-22 15:45:00,78.0,66.2,29.99,East,89,8.6,10.4,67,0.00,CLR,,0.00,WeatherDisplay:10.37,2013-04-22 20:45:00,
2013-04-22 15:50:00,78.2,66.8,29.99,East,97,7.1,11.5,68,0.00,CLR,,0.00,WeatherDisplay:10.37,2013-04-22 20:50:00,
2013-04-22 15:55:00,78.3,65.6,29.98,ESE,106,10.0,15.0,65,0.00,CLR,,0.00,WeatherDisplay:10.37,2013-04-22 20:55:00,
2013-04-22 16:00:00,78.5,66.6,29.98,East,88,9.2,13.8,67,0.00,CLR,,0.00,WeatherDisplay:10.37,2013-04-22 21:00:00,
2013-04-22 16:05:00,78.8,66.9,29.98,SE,131,7.3,10.4,67,0.00,CLR,,0.00,WeatherDisplay:10.37,2013-04-22 21:05:00,
2013-04-22 16:10:00,78.8,66.5,29.98,SE,143,10.0,13.8,66,0.00,CLR,,0.00,WeatherDisplay:10.37,2013-04-22 21:10:00,
2013-04-22 16:15:00,78.5,66.2,29.97,ESE,112,7.0,12.7,66,0.00,CLR,,0.00,WeatherDisplay:10.37,2013-04-22 21:15:00,
2013-04-22 16:20:00,78.4,66.5,29.97,ENE,76,8.7,11.5,67,0.00,CLR,,0.00,WeatherDisplay:10.37,2013-04-22 21:20:00,
2013-04-22 16:25:00,78.4,66.5,29.97,SE,126,9.7,15.0,67,0.00,CLR,,0.00,WeatherDisplay:10.37,2013-04-22 21:25:00,
2013-04-22 16:30:00,78.4,67.0,29.97,ESE,106,6.9,13.8,68,0.00,CLR,,0.00,WeatherDisplay:10.37,2013-04-22 21:30:00,
2013-04-22 16:35:00,78.7,66.8,29.96,SE,124,10.7,16.1,67,0.00,CLR,,0.00,WeatherDisplay:10.37,2013-04-22 21:35:00,
2013-04-22 16:40:00,78.7,67.2,29.96,East,89,9.1,13.8,68,0.00,CLR,,0.00,WeatherDisplay:10.37,2013-04-22 21:40:00,
2013-04-22 16:45:00,78.7,67.2,29.96,ESE,110,7.5,16.1,68,0.00,CLR,,0.00,WeatherDisplay:10.37,2013-04-22 21:45:00,
2013-04-22 16:50:00,78.9,67.0,29.96,ESE,112,11.3,17.5,67,0.00,CLR,,0.00,WeatherDisplay:10.37,2013-04-22 21:50:00,
2013-04-22 16:55:00,78.7,66.8,29.96,East,99,8.2,12.7,67,0.00,CLR,,0.00,WeatherDisplay:10.37,2013-04-22 21:55:00,
2013-04-22 17:00:00,78.3,66.9,29.96,ESE,116,8.3,13.8,68,0.00,CLR,,0.00,WeatherDisplay:10.37,2013-04-22 22:00:00,
2013-04-22 17:05:00,78.0,66.6,29.95,ESE,112,12.1,17.3,68,0.00,CLR,,0.00,WeatherDisplay:10.37,2013-04-22 22:05:00,
2013-04-22 17:10:00,77.8,66.8,29.95,ESE,120,9.9,15.0,69,0.00,CLR,,0.00,WeatherDisplay:10.37,2013-04-22 22:10:00,
2013-04-22 17:16:00,77.3,66.7,29.95,SE,138,8.8,17.3,70,0.00,CLR,,0.00,WeatherDisplay:10.37,2013-04-22 22:16:00,
2013-04-22 17:21:00,77.3,67.6,29.95,SE,134,10.1,17.3,72,0.00,CLR,,0.00,WeatherDisplay:10.37,2013-04-22 22:21:00,
2013-04-22 17:26:00,77.0,67.3,29.95,SE,133,10.9,17.3,72,0.00,CLR,,0.00,WeatherDisplay:10.37,2013-04-22 22:26:00,
2013-04-22 17:31:00,76.9,67.6,29.95,ESE,116,10.0,16.1,73,0.00,CLR,,0.00,WeatherDisplay:10.37,2013-04-22 22:31:00,
2013-04-22 17:36:00,76.7,67.8,29.95,East,90,9.4,15.0,74,0.00,CLR,,0.00,WeatherDisplay:10.37,2013-04-22 22:36:00,
2013-04-22 17:41:00,76.7,67.8,29.95,East,100,10.6,16.7,74,0.00,CLR,,0.00,WeatherDisplay:10.37,2013-04-22 22:41:00,
2013-04-22 17:46:00,76.4,67.5,29.95,SE,126,10.5,15.0,74,0.00,CLR,,0.00,WeatherDisplay:10.37,2013-04-22 22:46:00,
2013-04-22 17:51:00,76.2,67.7,29.95,ESE,107,9.6,15.0,75,0.00,CLR,,0.00,WeatherDisplay:10.37,2013-04-22 22:51:00,
2013-04-22 17:56:00,76.1,67.6,29.94,ENE,76,8.6,15.0,75,0.00,CLR,,0.00,WeatherDisplay:10.37,2013-04-22 22:56:00,
2013-04-22 18:01:00,76.2,67.7,29.94,ENE,78,9.2,13.8,75,0.00,CLR,,0.00,WeatherDisplay:10.37,2013-04-22 23:01:00,
2013-04-22 18:06:00,76.0,67.5,29.94,East,95,10.6,16.1,75,0.00,CLR,,0.00,WeatherDisplay:10.37,2013-04-22 23:06:00,
2013-04-22 18:11:00,76.0,67.5,29.94,ESE,109,8.8,13.8,75,0.00,CLR,,0.00,WeatherDisplay:10.37,2013-04-22 23:11:00,
2013-04-22 18:16:00,76.0,67.5,29.94,ESE,112,9.8,16.5,75,0.00,CLR,,0.00,WeatherDisplay:10.37,2013-04-22 23:16:00,
2013-04-22 18:21:00,76.0,67.9,29.94,SE,131,10.8,15.0,76,0.00,CLR,,0.00,WeatherDisplay:10.37,2013-04-22 23:21:00,
2013-04-22 18:26:00,75.9,67.8,29.94,ESE,107,10.8,18.4,76,0.00,CLR,,0.00,WeatherDisplay:10.37,2013-04-22 23:26:00,
2013-04-22 18:31:00,75.8,68.1,29.94,ESE,120,10.6,15.0,77,0.00,CLR,,0.00,WeatherDisplay:10.37,2013-04-22 23:31:00,
2013-04-22 18:36:00,75.6,67.9,29.94,East,79,11.2,18.4,77,0.00,CLR,,0.00,WeatherDisplay:10.37,2013-04-22 23:36:00,
2013-04-22 18:41:00,75.2,67.9,29.94,East,95,9.9,18.4,78,0.00,CLR,,0.00,WeatherDisplay:10.37,2013-04-22 23:41:00,
2013-04-22 18:46:00,74.9,67.6,29.94,SE,124,12.4,17.3,78,0.00,CLR,,0.00,WeatherDisplay:10.37,2013-04-22 23:46:00,
2013-04-22 18:51:00,74.8,68.2,29.94,East,90,11.3,15.5,80,0.00,CLR,,0.00,WeatherDisplay:10.37,2013-04-22 23:51:00,
2013-04-22 18:56:00,74.8,68.2,29.94,SSE,150,9.9,16.1,80,0.00,CLR,,0.00,WeatherDisplay:10.37,2013-04-22 23:56:00,
2013-04-22 19:01:00,74.3,67.7,29.94,East,82,12.8,19.8,80,0.00,CLR,,0.00,WeatherDisplay:10.37,2013-04-23 00:01:00,
2013-04-22 19:06:00,74.1,67.9,29.94,ESE,107,9.4,17.3,81,0.00,CLR,,0.00,WeatherDisplay:10.37,2013-04-23 00:06:00,
2013-04-22 19:11:00,74.0,68.2,29.94,East,97,10.8,19.6,82,0.00,CLR,,0.00,WeatherDisplay:10.37,2013-04-23 00:11:00,
2013-04-22 19:16:00,73.8,68.0,29.94,East,92,10.3,18.4,82,0.00,CLR,,0.00,WeatherDisplay:10.37,2013-04-23 00:16:00,
2013-04-22 19:21:00,73.7,68.2,29.94,ESE,110,9.2,19.6,83,0.00,CLR,,0.00,WeatherDisplay:10.37,2013-04-23 00:21:00,
2013-04-22 19:26:00,73.6,68.1,29.94,ESE,110,10.3,20.7,83,0.00,CLR,,0.00,WeatherDisplay:10.37,2013-04-23 00:26:00,
2013-04-22 19:31:00,73.3,68.2,29.93,ESE,116,10.4,16.1,84,0.00,CLR,,0.00,WeatherDisplay:10.37,2013-04-23 00:31:00,
2013-04-22 19:36:00,73.2,68.4,29.93,East,92,10.3,16.5,85,0.00,CLR,,0.00,WeatherDisplay:10.37,2013-04-23 00:36:00,
2013-04-22 19:41:00,72.9,68.5,29.93,ENE,69,11.5,15.9,86,0.00,CLR,,0.00,WeatherDisplay:10.37,2013-04-23 00:41:00,
2013-04-22 19:47:00,72.8,68.7,29.94,SE,134,11.5,16.8,87,0.00,CLR,,0.00,WeatherDisplay:10.37,2013-04-23 00:47:00,
2013-04-22 19:52:00,72.6,68.5,29.94,East,88,8.2,11.5,87,0.00,CLR,,0.00,WeatherDisplay:10.37,2013-04-23 00:52:00,
2013-04-22 19:57:00,72.4,68.6,29.94,ENE,61,10.9,16.1,88,0.00,CLR,,0.00,WeatherDisplay:10.37,2013-04-23 00:57:00,
2013-04-22 20:02:00,72.2,68.8,29.94,East,100,11.4,18.4,89,0.00,CLR,,0.00,WeatherDisplay:10.37,2013-04-23 01:02:00,
2013-04-22 20:07:00,72.0,68.6,29.94,ESE,119,9.2,15.1,89,0.00,CLR,,0.00,WeatherDisplay:10.37,2013-04-23 01:07:00,
2013-04-22 20:12:00,71.8,68.7,29.94,East,100,10.8,15.0,90,0.00,CLR,,0.00,WeatherDisplay:10.37,2013-04-23 01:12:00,
2013-04-22 20:17:00,71.7,68.9,29.94,ESE,116,10.0,19.6,91,0.00,CLR,,0.00,WeatherDisplay:10.37,2013-04-23 01:17:00,
2013-04-22 20:22:00,71.5,68.7,29.95,SE,126,9.4,14.5,91,0.00,CLR,,0.00,WeatherDisplay:10.37,2013-04-23 01:22:00,
2013-04-22 20:27:00,71.4,69.0,29.95,East,90,8.4,15.5,92,0.00,CLR,,0.00,WeatherDisplay:10.37,2013-04-23 01:27:00,
2013-04-22 20:32:00,71.3,68.9,29.95,ESE,102,10.8,19.6,92,0.00,CLR,,0.00,WeatherDisplay:10.37,2013-04-23 01:32:00,
2013-04-22 20:37:00,71.2,69.1,29.95,ESE,103,9.2,16.9,93,0.00,CLR,,0.00,WeatherDisplay:10.37,2013-04-23 01:37:00,
2013-04-22 20:42:00,71.2,69.1,29.95,East,82,8.7,16.1,93,0.00,CLR,,0.00,WeatherDisplay:10.37,2013-04-23 01:42:00,
2013-04-22 20:47:00,71.2,69.1,29.95,ESE,102,9.1,15.0,93,0.00,CLR,,0.00,WeatherDisplay:10.37,2013-04-23 01:47:00,
2013-04-22 20:52:00,71.2,69.4,29.95,ESE,121,9.6,17.3,94,0.00,CLR,,0.00,WeatherDisplay:10.37,2013-04-23 01:52:00,
2013-04-22 20:57:00,71.2,69.4,29.95,East,95,7.8,13.8,94,0.00,CLR,,0.00,WeatherDisplay:10.37,2013-04-23 01:57:00,
2013-04-22 21:02:00,71.1,69.3,29.96,SSE,150,9.0,16.2,94,0.00,CLR,,0.00,WeatherDisplay:10.37,2013-04-23 02:02:00,
2013-04-22 21:07:00,71.0,69.2,29.96,SE,130,9.1,16.1,94,0.00,CLR,,0.00,WeatherDisplay:10.37,2013-04-23 02:07:00,
2013-04-22 21:12:00,71.1,69.6,29.96,SE,133,8.6,15.0,95,0.00,CLR,,0.00,WeatherDisplay:10.37,2013-04-23 02:12:00,
2013-04-22 21:17:00,70.9,69.4,29.96,ESE,104,8.7,14.9,95,0.00,CLR,,0.00,WeatherDisplay:10.37,2013-04-23 02:17:00,
2013-04-22 21:22:00,70.9,69.4,29.96,SE,131,11.4,17.3,95,0.00,CLR,,0.00,WeatherDisplay:10.37,2013-04-23 02:22:00,
2013-04-22 21:27:00,70.8,69.6,29.96,ESE,106,9.5,15.0,96,0.00,CLR,,0.00,WeatherDisplay:10.37,2013-04-23 02:27:00,
2013-04-22 21:32:00,70.8,69.6,29.96,East,99,11.2,17.3,96,0.00,CLR,,0.00,WeatherDisplay:10.37,2013-04-23 02:32:00,
2013-04-22 21:37:00,70.8,69.6,29.96,SE,130,10.0,17.2,96,0.00,CLR,,0.00,WeatherDisplay:10.37,2013-04-23 02:37:00,
2013-04-22 21:43:00,70.7,69.5,29.97,East,86,9.7,14.4,96,0.00,CLR,,0.00,WeatherDisplay:10.37,2013-04-23 02:43:00,
2013-04-22 21:48:00,70.7,69.5,29.97,ESE,110,8.6,17.3,96,0.00,CLR,,0.00,WeatherDisplay:10.37,2013-04-23 02:48:00,
2013-04-22 21:53:00,70.7,69.5,29.97,East,80,10.7,15.0,96,0.00,CLR,,0.00,WeatherDisplay:10.37,2013-04-23 02:53:00,
2013-04-22 21:58:00,70.8,69.6,29.97,SE,133,11.8,17.3,96,0.00,CLR,,0.00,WeatherDisplay:10.37,2013-04-23 02:58:00,
2013-04-22 22:03:00,70.7,69.5,29.97,ESE,103,12.1,18.4,96,0.00,CLR,,0.00,WeatherDisplay:10.37,2013-04-23 03:03:00,
2013-04-22 22:08:00,70.7,69.5,29.97,East,95,9.8,14.8,96,0.00,CLR,,0.00,WeatherDisplay:10.37,2013-04-23 03:08:00,
2013-04-22 22:13:00,70.6,69.7,29.97,SSE,157,11.5,16.1,97,0.00,CLR,,0.00,WeatherDisplay:10.37,2013-04-23 03:13:00,
2013-04-22 22:18:00,70.7,69.8,29.97,ESE,123,8.2,17.3,97,0.00,CLR,,0.00,WeatherDisplay:10.37,2013-04-23 03:18:00,
2013-04-22 22:23:00,70.7,69.8,29.97,ESE,120,11.9,17.4,97,0.00,CLR,,0.00,WeatherDisplay:10.37,2013-04-23 03:23:00,
2013-04-22 22:28:00,70.7,69.8,29.97,ESE,123,11.4,17.3,97,0.00,CLR,,0.00,WeatherDisplay:10.37,2013-04-23 03:28:00,
2013-04-22 22:33:00,70.6,69.7,29.97,SSE,150,7.6,18.4,97,0.00,CLR,,0.00,WeatherDisplay:10.37,2013-04-23 03:33:00,
2013-04-22 22:38:00,70.6,69.7,29.97,SSE,152,9.3,17.3,97,0.00,CLR,,0.00,WeatherDisplay:10.37,2013-04-23 03:38:00,
2013-04-22 22:43:00,70.5,69.9,29.97,SE,144,8.5,15.0,98,0.00,CLR,,0.00,WeatherDisplay:10.37,2013-04-23 03:43:00,
2013-04-22 22:48:00,70.5,69.9,29.97,SSE,154,9.9,17.5,98,0.00,CLR,,0.00,WeatherDisplay:10.37,2013-04-23 03:48:00,
2013-04-22 22:53:00,70.5,69.9,29.97,SE,137,11.0,18.6,98,0.00,CLR,,0.00,WeatherDisplay:10.37,2013-04-23 03:53:00,
2013-04-22 22:58:00,70.5,69.9,29.97,ESE,121,8.8,15.0,98,0.00,CLR,,0.00,WeatherDisplay:10.37,2013-04-23 03:58:00,
2013-04-22 23:01:00,70.5,69.9,29.97,SE,131,9.9,13.8,98,0.00,CLR,,0.00,WeatherDisplay:10.37,2013-04-23 04:01:00,
2013-04-22 23:02:00,70.5,69.9,29.97,ESE,112,9.2,13.8,98,0.00,CLR,,0.00,WeatherDisplay:10.37,2013-04-23 04:02:00,
2013-04-22 23:04:00,70.5,69.9,29.97,SSE,157,8.9,15.0,98,0.00,CLR,,0.00,WeatherDisplay:10.37,2013-04-23 04:04:00,
2013-04-22 23:07:00,70.4,69.8,29.97,SE,127,10.1,18.4,98,0.00,CLR,,0.00,WeatherDisplay:10.37,2013-04-23 04:07:00,
2013-04-22 23:12:00,70.5,69.9,29.97,SSE,152,9.6,16.1,98,0.00,CLR,,0.00,WeatherDisplay:10.37,2013-04-23 04:12:00,
2013-04-22 23:17:00,70.4,69.8,29.97,ESE,117,10.5,16.1,98,0.00,,,0.00,WeatherDisplay:10.37,2013-04-23 04:17:00,
2013-04-22 23:22:00,70.5,69.9,29.97,ESE,113,9.9,13.8,98,0.00,,,0.00,WeatherDisplay:10.37,2013-04-23 04:22:00,
2013-04-22 23:27:00,70.5,69.9,29.97,SSE,152,11.2,14.3,98,0.00,,,0.00,WeatherDisplay:10.37,2013-04-23 04:27:00,
2013-04-22 23:32:00,70.3,69.7,29.97,SE,134,8.3,11.5,98,0.00,CLR,,0.00,WeatherDisplay:10.37,2013-04-23 04:32:00,
2013-04-22 23:37:00,70.3,69.7,29.97,SE,140,8.2,17.3,98,0.00,CLR,,0.00,WeatherDisplay:10.37,2013-04-23 04:37:00,
2013-04-22 23:42:00,70.4,69.8,29.97,SE,143,7.9,16.5,98,0.00,CLR,,0.00,WeatherDisplay:10.37,2013-04-23 04:42:00,
2013-04-22 23:47:00,70.4,69.8,29.97,ESE,121,7.5,16.1,98,0.00,CLR,,0.00,WeatherDisplay:10.37,2013-04-23 04:47:00,
2013-04-22 23:52:00,70.4,69.8,29.97,SE,126,8.4,16.1,98,0.00,CLR,,0.00,WeatherDisplay:10.37,2013-04-23 04:52:00,
2013-04-22 23:57:00,70.3,69.7,29.96,SE,140,9.2,15.8,98,0.00,CLR,,0.00,WeatherDisplay:10.37,2013-04-23 04:57:00,